星链-36646(STARLINK-36646)

导读

STARLINK-36646是由美国发射的SpaceX星链卫星,发射于2026年2月16日。星链是SpaceX打造的低轨卫星互联网星座,计划部署数万颗卫星,为全球提供高速互联网服务,这颗卫星将加入星座组网,拓展覆盖范围与服务能力,支撑星座的通信服务运营。

Basic Information
目录编号:
67823
目录名称:
STARLINK-36646
国际标识:
2026-033C
轨道中心:
EARTH
卫星名称:
星链-36646
卫星全名:
星链-36646(STARLINK-36646)
卫星状态:
在轨 (已飞行200 天)
发射日期:
2026-02-16 UTC
国别 :
美国 (US)
星等 :
--
Orbit Information
数据来源 国际轨道数据
星历时间: 2026-09-04T14:11:49+0800
7小时前
查看轨道信息
半长轴: 6861.139km
偏心率: 0.0001773
轨道倾角: 43.003°
近地点辐角 282.441°
升交点赤经 338.610°
平近点角 77.624°
近地点: 481.785km
远地点: 484.219km
周期: 94.266分钟
每日圈数: 15.275959
Detailed Information
固有亮度:
5
最大亮度:
2.5
卫星平台:
Starlink V1.0
覆盖范围:
全球
运营商:
太空探索技术公司
运营商所在国:
美国
制造商(研发单位):
太空探索技术公司
制造商所在国:
美国
使用方式:
暂无
Satellite Introduction
Starlink 计划是 SpaceX 推出的全球卫星互联网项目,通过发射低轨道卫星,为全球尤其是偏远地区提供高速、低延迟的互联网服务。自 2019 年起,Starlink 已部署数千颗卫星,旨在缩小全球数字鸿沟,推动互联网普及。该项目还为军事、航空等行业提供通信支持,带来广泛经济效益。
2D Orbit Map
3D Orbit Map
Orbit Altitude Analysis Chart
Orbit Inclination Analysis Chart
Orbit Comprehensive Analysis Chart
View Comprehensive Chart
Conjunction Data List
Event ID Objects TCA Miss Dist (km) Collision Risk Probability Collision Risk Index (CRI) Action
CDM_260828-125806-191706-782321
2026-08-28T
12:58:34+0000
1.222 km
极远距离
2.859068E-6 低风险 0.44
CDM_260905-180206-579906-782321
2026-09-05T
18:02:17+0000
2.111 km
极远距离
2.367741E-6 低风险 0.42
CDM_260901-130805-212506-782321
2026-09-01T
13:08:55+0000
1.917 km
极远距离
8.259278E-7 极低风险 0.33